Regional Weather Roundup
Issued by NWS

Home | Current Version | Previous Version | Graphics & Text | Print | Product List | Glossary On
Versions: 1 2 3 4 5 6 7 8 9 10 11 12 13 14 15 16 17 18 19 20 21 22 23 24 25 26 27 28
000
ASUS45 KBOI 231710
RWRID

IDAHO REGIONAL WEATHER ROUNDUP
NATIONAL WEATHER SERVICE BOISE ID
1100 AM MDT SUN JUL 23 2017

NOTE: "FAIR" INDICATES FEW OR NO CLOUDS BELOW 12000 FEET
WITH NO SIGNIFICANT WEATHER AND/OR OBSTRUCTIONS TO VISIBILITY

IDZ012-014-231800-
SOUTHWEST IDAHO


CITY           SKY/WX    TMP DP  RH WIND       PRES   REMARKS
BOISE          FAIR      83  43  24 CALM      30.02F
CALDWELL       FAIR      80  50  34 VRB5      30.01F
MOUNTAIN HOME  FAIR      82  41  23 CALM      30.03F
$$

IDZ016-017-231800-
SOUTHCENTRAL IDAHO


CITY           SKY/WX    TMP DP  RH WIND       PRES   REMARKS
BURLEY         FAIR      79  44  28 SE3       30.10F
JEROME         FAIR      78  37  22 SW7       30.11S
TWIN FALLS     FAIR      81  43  26 VRB6      30.11F
$$

IDZ019>023-231800-
SOUTHEAST IDAHO


CITY           SKY/WX    TMP DP  RH WIND       PRES   REMARKS
IDAHO FALLS    CLOUDY    71  46  40 VRB6G17   30.15F
POCATELLO      MOSUNNY   79  49  34 N9        30.13R
REXBURG        CLOUDY    68  47  46 CALM      30.18F
$$

IDZ006-010-011-018-031-032-231800-
CENTRAL IDAHO MOUNTAINS


CITY           SKY/WX    TMP DP  RH WIND       PRES   REMARKS
MCCALL         FAIR      72  40  31 VRB3      30.14F
HAILEY         SUNNY     75  46  35 SE9       30.19F
STANLEY          N/A     72  38  29 NW5       30.26F
SALMON         NOT AVBL
CHALLIS        FAIR      75  41  29 NE5       30.14F
$$

IDZ002-004-006-007-026-231800-
NORTHERN IDAHO


CITY           SKY/WX    TMP DP  RH WIND       PRES   REMARKS
LEWISTON       FAIR      79  51  37 VRB5      29.98F
LOWELL           N/A     73  51  46 CALM      29.99F
COEUR D`ALENE  FAIR      79  52  38 S10       30.00F
MULLAN PASS    FAIR      69  43  38 CALM      30.21S
$$




USA.gov is the U.S. government's official web portal to all federal, state and local government web resources and services.